Private Wetterstation Wechselburg
Wetterdaten: Donnerstag, 05.12.2019
Datum Zeit Temp. +2m Bodentemp. Temp.+5cm Temp. Wind Windchill X Diff Temp. Feuchte +2m Feuchte +5cm Luftdruck Regen Wind Richtung Richtung Sonnenschein Taupunkt Windchill Windben
05.12.2019 00:00 -2,5 C 5,7 C -2,8 C -2,9 C -3,6 C 0,0 C 88 % 91 % 1022,0 hPa 0,0 l/m 0,0 km/h (0 Bft) S 180 0 min -4,2 C -3,6 C 0,0 km/h (0 Bft)
05.12.2019 00:05 -2,5 C 5,6 C -2,8 C -2,9 C -3,6 C 0,0 C 88 % 91 % 1022,0 hPa 0,0 l/m 0,0 km/h (0 Bft) S 180 0 min -4,2 C -3,6 C 0,0 km/h (0 Bft)
05.12.2019 00:10 -2,5 C 5,6 C -2,9 C -2,8 C -3,5 C 0,0 C 88 % 91 % 1022,0 hPa 0,0 l/m 0,0 km/h (0 Bft) SO 135 0 min -4,2 C -3,5 C 0,0 km/h (0 Bft)
05.12.2019 00:15 -2,5 C 5,6 C -2,8 C -2,8 C -3,4 C 0,0 C 88 % 91 % 1022,0 hPa 0,0 l/m 0,0 km/h (0 Bft) SO 135 0 min -4,2 C -3,4 C 0,0 km/h (0 Bft)
05.12.2019 00:20 -2,5 C 5,6 C -2,8 C -2,8 C -3,3 C 0,0 C 88 % 91 % 1022,1 hPa 0,0 l/m 0,0 km/h (0 Bft) SO 135 0 min -4,2 C -3,3 C 0,0 km/h (0 Bft)
05.12.2019 00:25 -2,6 C 5,6 C -2,9 C -2,9 C -3,4 C 0,0 C 88 % 91 % 1022,1 hPa 0,0 l/m 0,0 km/h (0 Bft) SO 135 0 min -4,3 C -3,4 C 0,0 km/h (0 Bft)
05.12.2019 00:30 -2,7 C 5,6 C -2,9 C -2,8 C -3,0 C 0,0 C 88 % 91 % 1022,1 hPa 0,0 l/m 0,0 km/h (0 Bft) SO 135 0 min -4,4 C -3,0 C 0,0 km/h (0 Bft)
05.12.2019 00:35 -2,7 C 5,6 C -3,0 C -2,8 C -3,1 C 0,0 C 88 % 91 % 1022,1 hPa 0,0 l/m 0,0 km/h (0 Bft) SO 135 0 min -4,4 C -3,1 C 0,0 km/h (0 Bft)
05.12.2019 00:40 -2,8 C 5,6 C -2,9 C -3,0 C -3,3 C 0,0 C 88 % 91 % 1022,1 hPa 0,0 l/m 0,0 km/h (0 Bft) S 180 0 min -4,5 C -3,3 C 0,0 km/h (0 Bft)
05.12.2019 00:45 -2,8 C 5,6 C -3,0 C -3,0 C -3,5 C 0,0 C 88 % 91 % 1022,1 hPa 0,0 l/m 0,0 km/h (0 Bft) S 180 0 min -4,5 C -3,5 C 0,0 km/h (0 Bft)
05.12.2019 00:50 -2,7 C 5,6 C -3,0 C -3,0 C -3,6 C 0,0 C 88 % 91 % 1022,1 hPa 0,0 l/m 0,0 km/h (0 Bft) S 180 0 min -4,4 C -3,6 C 0,0 km/h (0 Bft)
05.12.2019 00:55 -2,9 C 5,6 C -3,1 C -3,1 C -3,6 C 0,0 C 88 % 91 % 1022,1 hPa 0,0 l/m 0,0 km/h (0 Bft) S 180 0 min -4,6 C -3,6 C 0,0 km/h (0 Bft)
05.12.2019 01:00 -2,9 C 5,6 C -3,1 C -3,2 C -3,8 C 0,0 C 88 % 91 % 1021,6 hPa 0,0 l/m 0,0 km/h (0 Bft) S 180 0 min -4,6 C -3,8 C 0,0 km/h (0 Bft)
05.12.2019 01:05 -2,9 C 5,5 C -3,0 C -3,2 C -3,8 C 0,0 C 88 % 91 % 1021,6 hPa 0,0 l/m 0,0 km/h (0 Bft) S 180 0 min -4,6 C -3,8 C 0,0 km/h (0 Bft)
05.12.2019 01:10 -2,9 C 5,5 C -3,1 C -3,2 C -3,8 C 0,0 C 88 % 91 % 1021,6 hPa 0,0 l/m 0,0 km/h (0 Bft) S 180 0 min -4,6 C -3,8 C 0,0 km/h (0 Bft)
05.12.2019 01:15 -2,9 C 5,5 C -3,2 C -3,2 C -3,8 C 0,0 C 88 % 91 % 1021,6 hPa 0,0 l/m 0,0 km/h (0 Bft) S 180 0 min -4,6 C -3,8 C 0,0 km/h (0 Bft)
05.12.2019 01:20 -2,9 C 5,5 C -3,2 C -3,2 C -3,7 C 0,0 C 88 % 91 % 1021,6 hPa 0,0 l/m 0,0 km/h (0 Bft) O-SO 112 0 min -4,6 C -3,7 C 0,0 km/h (0 Bft)
05.12.2019 01:25 -3,0 C 5,5 C -3,3 C -3,2 C -3,7 C 0,0 C 88 % 91 % 1021,6 hPa 0,0 l/m 0,0 km/h (0 Bft) O-SO 112 0 min -4,7 C -3,7 C 0,0 km/h (0 Bft)
05.12.2019 01:30 -2,9 C 5,5 C -3,3 C -3,2 C -3,7 C 0,0 C 88 % 91 % 1021,6 hPa 0,0 l/m 0,0 km/h (0 Bft) O-SO 112 0 min -4,6 C -3,7 C 0,0 km/h (0 Bft)
05.12.2019 01:35 -2,9 C 5,5 C -3,3 C -3,1 C -3,6 C 0,0 C 88 % 91 % 1021,6 hPa 0,0 l/m 0,0 km/h (0 Bft) O-SO 112 0 min -4,6 C -3,6 C 0,0 km/h (0 Bft)
05.12.2019 01:40 -3,1 C 5,5 C -3,3 C -3,3 C -3,7 C 0,0 C 88 % 91 % 1021,9 hPa 0,0 l/m 0,0 km/h (0 Bft) O-SO 112 0 min -4,8 C -3,7 C 0,0 km/h (0 Bft)
05.12.2019 01:45 -3,1 C 5,5 C -3,3 C -3,4 C -3,9 C 0,0 C 88 % 91 % 1021,9 hPa 0,0 l/m 0,0 km/h (0 Bft) S-SO 157 0 min -4,8 C -3,9 C 0,0 km/h (0 Bft)
05.12.2019 01:50 -3,2 C 5,5 C -3,4 C -3,5 C -4,1 C 0,0 C 88 % 91 % 1021,9 hPa 0,0 l/m 0,0 km/h (0 Bft) S-SO 157 0 min -4,9 C -4,1 C 0,0 km/h (0 Bft)
05.12.2019 01:55 -3,1 C 5,5 C -3,4 C -3,4 C -4,1 C 0,0 C 88 % 91 % 1021,9 hPa 0,0 l/m 0,0 km/h (0 Bft) S-SO 157 0 min -4,8 C -4,1 C 0,0 km/h (0 Bft)
05.12.2019 02:00 -3,3 C 5,4 C -3,5 C -3,5 C -3,9 C 0,0 C 88 % 91 % 1022,1 hPa 0,0 l/m 0,0 km/h (0 Bft) O-SO 112 0 min -5,0 C -3,9 C 0,0 km/h (0 Bft)
05.12.2019 02:05 -3,3 C 5,4 C -3,5 C -3,5 C -3,8 C 0,0 C 88 % 91 % 1022,1 hPa 0,0 l/m 0,0 km/h (0 Bft) O-SO 112 0 min -5,0 C -3,8 C 0,0 km/h (0 Bft)
05.12.2019 02:10 -3,1 C 5,4 C -3,5 C -3,3 C -3,7 C 0,0 C 88 % 91 % 1022,1 hPa 0,0 l/m 0,0 km/h (0 Bft) O-SO 112 0 min -4,8 C -3,7 C 0,0 km/h (0 Bft)
05.12.2019 02:15 -3,1 C 5,4 C -3,4 C -3,3 C -3,7 C 0,0 C 88 % 91 % 1022,1 hPa 0,0 l/m 0,0 km/h (0 Bft) O-SO 112 0 min -4,8 C -3,7 C 0,0 km/h (0 Bft)
05.12.2019 02:20 -3,3 C 5,4 C -3,5 C -3,5 C -3,8 C 0,0 C 88 % 91 % 1022,3 hPa 0,0 l/m 0,0 km/h (0 Bft) O-SO 112 0 min -5,0 C -3,8 C 0,0 km/h (0 Bft)
05.12.2019 02:25 -3,3 C 5,4 C -3,5 C -3,5 C -3,8 C 0,0 C 88 % 91 % 1022,3 hPa 0,0 l/m 0,0 km/h (0 Bft) O-SO 112 0 min -5,0 C -3,8 C 0,0 km/h (0 Bft)
05.12.2019 02:30 -3,3 C 5,4 C -3,5 C -3,4 C -3,7 C 0,0 C 88 % 91 % 1022,3 hPa 0,0 l/m 0,0 km/h (0 Bft) O-SO 112 0 min -5,0 C -3,7 C 0,0 km/h (0 Bft)
05.12.2019 02:35 -3,3 C 5,4 C -3,6 C -3,5 C -3,9 C 0,0 C 88 % 91 % 1022,3 hPa 0,0 l/m 0,0 km/h (0 Bft) O-SO 112 0 min -5,0 C -3,9 C 0,0 km/h (0 Bft)
05.12.2019 02:40 -3,3 C 5,4 C -3,6 C -3,6 C -4,2 C 0,0 C 88 % 91 % 1022,0 hPa 0,0 l/m 0,0 km/h (0 Bft) S 180 0 min -5,0 C -4,2 C 0,0 km/h (0 Bft)
05.12.2019 02:45 -3,3 C 5,4 C -3,6 C -3,6 C -4,3 C 0,0 C 88 % 91 % 1022,0 hPa 0,0 l/m 0,0 km/h (0 Bft) S 180 0 min -5,0 C -4,3 C 0,0 km/h (0 Bft)
05.12.2019 02:50 -3,3 C 5,4 C -3,7 C -3,7 C -4,4 C 0,0 C 88 % 91 % 1022,0 hPa 0,0 l/m 0,0 km/h (0 Bft) S 180 0 min -5,0 C -4,4 C 0,0 km/h (0 Bft)
05.12.2019 02:55 -3,3 C 5,4 C -3,6 C -3,7 C -4,4 C 0,0 C 88 % 91 % 1022,0 hPa 0,0 l/m 0,0 km/h (0 Bft) S-SO 157 0 min -5,0 C -4,4 C 0,0 km/h (0 Bft)
05.12.2019 03:00 -3,5 C 5,3 C -3,6 C -3,7 C -4,2 C 0,0 C 88 % 91 % 1021,7 hPa 0,0 l/m 0,0 km/h (0 Bft) O-SO 112 0 min -5,2 C -4,2 C 0,0 km/h (0 Bft)
05.12.2019 03:05 -3,5 C 5,3 C -3,7 C -3,7 C -4,1 C 0,0 C 88 % 91 % 1021,7 hPa 0,0 l/m 0,0 km/h (0 Bft) O-SO 112 0 min -5,2 C -4,1 C 0,0 km/h (0 Bft)
05.12.2019 03:10 -3,6 C 5,3 C -3,7 C -3,8 C -4,2 C 0,0 C 88 % 91 % 1021,7 hPa 0,0 l/m 0,0 km/h (0 Bft) O-SO 112 0 min -5,3 C -4,2 C 0,0 km/h (0 Bft)
05.12.2019 03:15 -3,6 C 5,3 C -3,7 C -3,8 C -4,3 C 0,0 C 88 % 91 % 1021,7 hPa 0,0 l/m 0,2 km/h (0 Bft) W 270 0 min -5,3 C -4,3 C 0,0 km/h (0 Bft)
05.12.2019 03:20 -3,6 C 5,3 C -3,7 C -3,9 C -4,4 C 0,0 C 88 % 91 % 1022,1 hPa 0,0 l/m 0,2 km/h (0 Bft) W-SW 247 0 min -5,3 C -4,4 C 0,0 km/h (0 Bft)
05.12.2019 03:25 -3,5 C 5,3 C -3,7 C -3,8 C -4,4 C 0,0 C 88 % 91 % 1022,1 hPa 0,0 l/m 0,0 km/h (0 Bft) W-SW 247 0 min -5,2 C -4,4 C 0,0 km/h (0 Bft)
05.12.2019 03:30 -3,7 C 5,3 C -3,7 C -4,0 C -4,5 C 0,0 C 88 % 91 % 1022,1 hPa 0,0 l/m 0,0 km/h (0 Bft) W-SW 247 0 min -5,4 C -4,5 C 0,0 km/h (0 Bft)
05.12.2019 03:35 -3,7 C 5,3 C -3,8 C -3,9 C -4,4 C 0,0 C 88 % 90 % 1022,1 hPa 0,0 l/m 0,0 km/h (0 Bft) N-NO 22 0 min -5,4 C -4,4 C 0,0 km/h (0 Bft)
05.12.2019 03:40 -3,7 C 5,3 C -3,7 C -3,9 C -4,3 C 0,0 C 88 % 90 % 1021,8 hPa 0,0 l/m 0,0 km/h (0 Bft) N-NO 22 0 min -5,4 C -4,3 C 0,0 km/h (0 Bft)
05.12.2019 03:45 -3,7 C 5,3 C -3,8 C -3,9 C -4,2 C 0,0 C 88 % 90 % 1021,8 hPa 0,0 l/m 0,0 km/h (0 Bft) N-NO 22 0 min -5,4 C -4,2 C 0,0 km/h (0 Bft)
05.12.2019 03:50 -3,8 C 5,3 C -3,8 C -4,0 C -4,4 C 0,0 C 88 % 90 % 1021,8 hPa 0,0 l/m 0,0 km/h (0 Bft) N-NO 22 0 min -5,5 C -4,4 C 0,0 km/h (0 Bft)
05.12.2019 03:55 -3,7 C 5,3 C -3,8 C -3,9 C -4,3 C 0,0 C 88 % 90 % 1021,8 hPa 0,0 l/m 0,0 km/h (0 Bft) N-NO 22 0 min -5,4 C -4,3 C 0,0 km/h (0 Bft)
05.12.2019 04:00 -3,7 C 5,2 C -3,7 C -3,8 C -4,1 C 0,0 C 88 % 90 % 1021,5 hPa 0,0 l/m 0,0 km/h (0 Bft) N-NO 22 0 min -5,4 C -4,1 C 0,0 km/h (0 Bft)
05.12.2019 04:05 -3,7 C 5,2 C -3,8 C -3,8 C -4,1 C 0,0 C 88 % 90 % 1021,5 hPa 0,0 l/m 0,0 km/h (0 Bft) N-NO 22 0 min -5,4 C -4,1 C 0,0 km/h (0 Bft)
05.12.2019 04:10 -3,7 C 5,2 C -3,9 C -3,9 C -4,4 C 0,0 C 88 % 90 % 1021,5 hPa 0,0 l/m 0,0 km/h (0 Bft) N-NO 22 0 min -5,4 C -4,4 C 0,0 km/h (0 Bft)
05.12.2019 04:15 -3,7 C 5,2 C -3,8 C -3,9 C -4,4 C 0,0 C 88 % 90 % 1021,5 hPa 0,0 l/m 0,0 km/h (0 Bft) N-NO 22 0 min -5,4 C -4,4 C 0,0 km/h (0 Bft)
05.12.2019 04:20 -3,9 C 5,2 C -3,8 C -4,1 C -4,4 C 0,0 C 88 % 90 % 1021,8 hPa 0,0 l/m 0,0 km/h (0 Bft) N-NO 22 0 min -5,6 C -4,4 C 0,0 km/h (0 Bft)
05.12.2019 04:25 -3,9 C 5,2 C -3,8 C -4,1 C -4,5 C 0,0 C 88 % 90 % 1021,8 hPa 0,0 l/m 0,0 km/h (0 Bft) N-NO 22 0 min -5,6 C -4,5 C 0,0 km/h (0 Bft)
05.12.2019 04:30 -3,9 C 5,2 C -3,9 C -4,2 C -4,7 C 0,0 C 88 % 90 % 1021,8 hPa 0,0 l/m 0,0 km/h (0 Bft) N-NO 22 0 min -5,6 C -4,7 C 0,0 km/h (0 Bft)
05.12.2019 04:35 -4,0 C 5,2 C -4,0 C -4,2 C -4,6 C 0,0 C 88 % 90 % 1021,8 hPa 0,0 l/m 0,0 km/h (0 Bft) N-NO 22 0 min -5,7 C -4,6 C 0,0 km/h (0 Bft)
05.12.2019 04:40 -3,9 C 5,2 C -4,1 C -4,1 C -4,4 C 0,0 C 88 % 90 % 1021,8 hPa 0,0 l/m 0,0 km/h (0 Bft) N-NO 22 0 min -5,6 C -4,4 C 0,0 km/h (0 Bft)
05.12.2019 04:45 -4,1 C 5,2 C -4,1 C -4,2 C -4,4 C 0,0 C 88 % 90 % 1021,8 hPa 0,0 l/m 0,0 km/h (0 Bft) N-NO 22 0 min -5,8 C -4,4 C 0,0 km/h (0 Bft)
05.12.2019 04:50 -4,1 C 5,2 C -4,1 C -4,2 C -4,3 C 0,0 C 88 % 90 % 1021,8 hPa 0,0 l/m 0,0 km/h (0 Bft) N-NO 22 0 min -5,8 C -4,3 C 0,0 km/h (0 Bft)
05.12.2019 04:55 -4,1 C 5,2 C -4,0 C -4,2 C -4,4 C 0,0 C 88 % 90 % 1021,8 hPa 0,0 l/m 0,2 km/h (0 Bft) W-NW 292 0 min -5,8 C -4,4 C 0,0 km/h (0 Bft)
05.12.2019 05:00 -4,1 C 5,1 C -4,0 C -4,2 C -4,4 C 0,0 C 88 % 90 % 1021,6 hPa 0,0 l/m 0,2 km/h (0 Bft) W-SW 247 0 min -5,8 C -4,4 C 0,0 km/h (0 Bft)
05.12.2019 05:05 -4,1 C 5,1 C -4,0 C -4,2 C -4,5 C 0,0 C 88 % 90 % 1021,6 hPa 0,0 l/m 0,0 km/h (0 Bft) W-SW 247 0 min -5,8 C -4,5 C 2,9 km/h (1 Bft)
05.12.2019 05:10 -4,1 C 5,1 C -4,1 C -4,3 C -4,6 C 0,0 C 89 % 90 % 1021,6 hPa 0,0 l/m 0,0 km/h (0 Bft) W-SW 247 0 min -5,6 C -4,6 C 0,0 km/h (0 Bft)
05.12.2019 05:15 -4,1 C 5,1 C -4,1 C -4,3 C -4,7 C 0,0 C 88 % 90 % 1021,6 hPa 0,0 l/m 0,0 km/h (0 Bft) W-SW 247 0 min -5,8 C -4,7 C 0,0 km/h (0 Bft)
05.12.2019 05:20 -4,1 C 5,1 C -4,1 C -4,3 C -4,7 C 0,0 C 89 % 90 % 1021,9 hPa 0,0 l/m 0,0 km/h (0 Bft) W-SW 247 0 min -5,6 C -4,7 C 0,0 km/h (0 Bft)
05.12.2019 05:25 -4,2 C 5,1 C -4,1 C -4,4 C -4,7 C 0,0 C 88 % 90 % 1021,9 hPa 0,0 l/m 0,0 km/h (0 Bft) SW 225 0 min -5,9 C -4,7 C 0,0 km/h (0 Bft)
05.12.2019 05:30 -4,1 C 5,1 C -4,1 C -4,3 C -4,7 C 0,0 C 88 % 90 % 1021,9 hPa 0,0 l/m 0,0 km/h (0 Bft) S-SW 202 0 min -5,8 C -4,7 C 0,0 km/h (0 Bft)
05.12.2019 05:35 -4,1 C 5,1 C -4,0 C -4,3 C -4,7 C 0,0 C 88 % 90 % 1021,9 hPa 0,0 l/m 0,0 km/h (0 Bft) SW 225 0 min -5,8 C -4,7 C 0,0 km/h (0 Bft)
05.12.2019 05:40 -4,1 C 5,1 C -4,0 C -4,3 C -4,7 C 0,0 C 89 % 90 % 1022,2 hPa 0,0 l/m 0,0 km/h (0 Bft) SW 225 0 min -5,6 C -4,7 C 0,0 km/h (0 Bft)
05.12.2019 05:45 -4,1 C 5,1 C -4,1 C -4,3 C -4,8 C 0,0 C 89 % 90 % 1022,2 hPa 0,0 l/m 0,0 km/h (0 Bft) SW 225 0 min -5,6 C -4,8 C 0,0 km/h (0 Bft)
05.12.2019 05:50 -4,1 C 5,1 C -4,1 C -4,4 C -4,9 C 0,0 C 89 % 90 % 1022,2 hPa 0,0 l/m 0,0 km/h (0 Bft) S-SO 157 0 min -5,6 C -4,9 C 0,0 km/h (0 Bft)
05.12.2019 05:55 -4,1 C 5,1 C -4,1 C -4,3 C -4,8 C 0,0 C 89 % 90 % 1022,2 hPa 0,0 l/m 0,0 km/h (0 Bft) O-SO 112 0 min -5,6 C -4,8 C 0,0 km/h (0 Bft)
05.12.2019 06:00 -4,3 C 5,0 C -4,2 C -4,5 C -4,9 C 0,0 C 88 % 90 % 1021,7 hPa 0,0 l/m 0,0 km/h (0 Bft) O-SO 112 0 min -6,0 C -4,9 C 0,0 km/h (0 Bft)
05.12.2019 06:05 -4,3 C 5,0 C -4,3 C -4,5 C -4,9 C 0,0 C 88 % 90 % 1021,7 hPa 0,0 l/m 0,0 km/h (0 Bft) O-SO 112 0 min -6,0 C -4,9 C 0,0 km/h (0 Bft)
05.12.2019 06:10 -4,4 C 5,0 C -4,2 C -4,6 C -4,9 C 0,0 C 88 % 90 % 1021,7 hPa 0,0 l/m 0,0 km/h (0 Bft) O 90 0 min -6,1 C -4,9 C 0,0 km/h (0 Bft)
05.12.2019 06:15 -4,4 C 5,0 C -4,2 C -4,5 C -4,7 C 0,0 C 88 % 90 % 1021,7 hPa 0,0 l/m 0,0 km/h (0 Bft) O 90 0 min -6,1 C -4,7 C 0,0 km/h (0 Bft)
05.12.2019 06:20 -4,4 C 5,0 C -4,3 C -4,5 C -4,6 C 0,0 C 88 % 90 % 1021,4 hPa 0,0 l/m 0,0 km/h (0 Bft) O 90 0 min -6,1 C -4,6 C 0,0 km/h (0 Bft)
05.12.2019 06:25 -4,4 C 5,0 C -4,3 C -4,5 C -4,6 C 0,0 C 88 % 90 % 1021,4 hPa 0,0 l/m 0,0 km/h (0 Bft) O 90 0 min -6,1 C -4,6 C 0,0 km/h (0 Bft)
05.12.2019 06:30 -4,3 C 5,0 C -4,3 C -4,5 C -4,9 C 0,0 C 88 % 90 % 1021,4 hPa 0,0 l/m 0,0 km/h (0 Bft) O 90 0 min -6,0 C -4,9 C 0,0 km/h (0 Bft)
05.12.2019 06:35 -4,5 C 5,0 C -4,3 C -4,7 C -5,0 C 0,0 C 88 % 90 % 1021,4 hPa 0,0 l/m 0,0 km/h (0 Bft) O 90 0 min -6,2 C -5,0 C 0,0 km/h (0 Bft)
05.12.2019 06:40 -4,3 C 5,0 C -4,3 C -4,5 C -4,8 C 0,0 C 88 % 90 % 1021,9 hPa 0,0 l/m 0,0 km/h (0 Bft) O 90 0 min -6,0 C -4,8 C 0,0 km/h (0 Bft)
05.12.2019 06:45 -4,5 C 5,0 C -4,3 C -4,6 C -4,8 C 0,0 C 88 % 90 % 1021,9 hPa 0,0 l/m 0,0 km/h (0 Bft) O 90 0 min -6,2 C -4,8 C 0,0 km/h (0 Bft)
05.12.2019 06:50 -4,5 C 5,0 C -4,3 C -4,7 C -5,0 C 0,0 C 88 % 90 % 1021,9 hPa 0,0 l/m 0,2 km/h (0 Bft) W-SW 247 0 min -6,2 C -5,0 C 0,0 km/h (0 Bft)
05.12.2019 06:55 -4,5 C 5,0 C -4,3 C -4,7 C -5,0 C 0,0 C 88 % 90 % 1021,9 hPa 0,0 l/m 0,2 km/h (0 Bft) W-NW 292 0 min -6,2 C -5,0 C 0,0 km/h (0 Bft)
05.12.2019 07:00 -4,5 C 5,0 C -4,4 C -4,7 C -5,0 C 0,0 C 89 % 90 % 1021,8 hPa 0,0 l/m 0,2 km/h (0 Bft) NW 315 0 min -6,0 C -5,0 C 0,0 km/h (0 Bft)
05.12.2019 07:05 -4,5 C 4,8 C -4,5 C -4,7 C -5,1 C 0,0 C 88 % 90 % 1021,8 hPa 0,0 l/m 0,0 km/h (0 Bft) NW 315 0 min -6,2 C -5,1 C 0,0 km/h (0 Bft)
05.12.2019 07:10 -4,5 C 4,8 C -4,5 C -4,7 C -5,2 C 0,0 C 88 % 90 % 1021,8 hPa 0,0 l/m 0,0 km/h (0 Bft) W-NW 292 0 min -6,2 C -5,2 C 0,0 km/h (0 Bft)
05.12.2019 07:15 -4,7 C 4,8 C -4,5 C -4,9 C -5,3 C 0,0 C 88 % 90 % 1021,8 hPa 0,0 l/m 0,0 km/h (0 Bft) NW 315 0 min -6,4 C -5,3 C 0,0 km/h (0 Bft)
05.12.2019 07:20 -4,7 C 4,8 C -4,5 C -4,9 C -5,3 C 0,0 C 89 % 90 % 1022,4 hPa 0,0 l/m 0,0 km/h (0 Bft) W-SW 247 0 min -6,2 C -5,3 C 0,0 km/h (0 Bft)
05.12.2019 07:25 -4,7 C 4,8 C -4,5 C -4,9 C -5,2 C 0,0 C 88 % 90 % 1022,4 hPa 0,0 l/m 0,0 km/h (0 Bft) O 90 0 min -6,4 C -5,2 C 0,0 km/h (0 Bft)
05.12.2019 07:30 -4,7 C 4,8 C -4,7 C -4,8 C -5,0 C 0,0 C 89 % 90 % 1022,4 hPa 0,0 l/m 0,2 km/h (0 Bft) O 90 0 min -6,2 C -5,0 C 0,0 km/h (0 Bft)
05.12.2019 07:35 -4,8 C 4,8 C -4,7 C -4,9 C -5,1 C 0,0 C 89 % 90 % 1022,4 hPa 0,0 l/m 0,2 km/h (0 Bft) O 90 0 min -6,3 C -5,1 C 0,0 km/h (0 Bft)
05.12.2019 07:40 -4,8 C 4,8 C -4,6 C -4,9 C -5,2 C 0,0 C 89 % 90 % 1021,8 hPa 0,0 l/m 0,0 km/h (0 Bft) O 90 0 min -6,3 C -5,2 C 0,0 km/h (0 Bft)
05.12.2019 07:45 -4,8 C 4,8 C -4,7 C -4,9 C -5,2 C 0,0 C 89 % 90 % 1021,8 hPa 0,0 l/m 0,0 km/h (0 Bft) O 90 0 min -6,3 C -5,2 C 0,0 km/h (0 Bft)
05.12.2019 07:50 -4,9 C 4,8 C -4,7 C -5,0 C -5,3 C 0,0 C 89 % 90 % 1021,8 hPa 0,0 l/m 0,0 km/h (0 Bft) O 90 0 min -6,4 C -5,3 C 0,0 km/h (0 Bft)
05.12.2019 07:55 -4,9 C 4,8 C -4,6 C -5,0 C -5,3 C 0,0 C 89 % 90 % 1021,8 hPa 0,0 l/m 0,0 km/h (0 Bft) O 90 0 min -6,4 C -5,3 C 0,0 km/h (0 Bft)
05.12.2019 08:00 -4,9 C 4,8 C -4,6 C -5,1 C -5,4 C 0,0 C 89 % 90 % 1021,8 hPa 0,0 l/m 0,0 km/h (0 Bft) O 90 0 min -6,4 C -5,4 C 0,0 km/h (0 Bft)
05.12.2019 08:05 -4,9 C 4,7 C -4,6 C -5,0 C -5,3 C 0,0 C 89 % 90 % 1021,8 hPa 0,0 l/m 0,0 km/h (0 Bft) O 90 0 min -6,4 C -5,3 C 0,0 km/h (0 Bft)
05.12.2019 08:10 -4,9 C 4,7 C -4,5 C -5,0 C -5,3 C 0,0 C 89 % 90 % 1021,8 hPa 0,0 l/m 0,0 km/h (0 Bft) O 90 0 min -6,4 C -5,3 C 0,0 km/h (0 Bft)
05.12.2019 08:15 -4,9 C 4,7 C -4,6 C -5,0 C -5,3 C 0,0 C 89 % 90 % 1021,8 hPa 0,0 l/m 0,0 km/h (0 Bft) O 90 0 min -6,4 C -5,3 C 0,0 km/h (0 Bft)
05.12.2019 08:20 -4,9 C 4,7 C -4,5 C -5,0 C -5,2 C 0,0 C 89 % 90 % 1022,2 hPa 0,0 l/m 0,0 km/h (0 Bft) O 90 0 min -6,4 C -5,2 C 0,0 km/h (0 Bft)
05.12.2019 08:25 -4,9 C 4,7 C -4,5 C -5,0 C -5,2 C 0,0 C 89 % 90 % 1022,2 hPa 0,0 l/m 0,0 km/h (0 Bft) O 90 0 min -6,4 C -5,2 C 0,0 km/h (0 Bft)
05.12.2019 08:30 -4,9 C 4,7 C -4,5 C -4,9 C -5,0 C 0,0 C 89 % 90 % 1022,2 hPa 0,0 l/m 0,0 km/h (0 Bft) O 90 0 min -6,4 C -5,0 C 0,0 km/h (0 Bft)
05.12.2019 08:35 -4,9 C 4,7 C -4,4 C -4,9 C -5,0 C 0,0 C 89 % 90 % 1022,2 hPa 0,0 l/m 0,0 km/h (0 Bft) O 90 0 min -6,4 C -5,0 C 0,0 km/h (0 Bft)
05.12.2019 08:40 -4,9 C 4,7 C -4,4 C -4,9 C -5,0 C 0,0 C 89 % 90 % 1022,4 hPa 0,0 l/m 0,0 km/h (0 Bft) O 90 0 min -6,4 C -5,0 C 0,0 km/h (0 Bft)
05.12.2019 08:45 -4,9 C 4,7 C -4,4 C -4,9 C -4,9 C 0,0 C 89 % 90 % 1022,4 hPa 0,0 l/m 0,0 km/h (0 Bft) O 90 0 min -6,4 C -4,9 C 0,0 km/h (0 Bft)
05.12.2019 08:50 -4,9 C 4,7 C -4,2 C -4,7 C -4,7 C 0,2 C 89 % 90 % 1022,4 hPa 0,0 l/m 0,0 km/h (0 Bft) S-SW 202 0 min -6,4 C -4,7 C 0,0 km/h (0 Bft)
05.12.2019 08:55 -4,8 C 4,7 C -4,0 C -4,4 C -4,4 C 0,4 C 89 % 90 % 1022,4 hPa 0,0 l/m 0,0 km/h (0 Bft) SW 225 0 min -6,3 C -4,4 C 0,0 km/h (0 Bft)
05.12.2019 09:00 -4,7 C 4,7 C -4,1 C -4,3 C -4,3 C 0,4 C 89 % 90 % 1022,4 hPa 0,0 l/m 0,0 km/h (0 Bft) SW 225 0 min -6,2 C -4,3 C 0,0 km/h (0 Bft)
05.12.2019 09:05 -4,7 C 4,7 C -4,1 C -4,3 C -4,3 C 0,4 C 89 % 90 % 1022,4 hPa 0,0 l/m 0,0 km/h (0 Bft) O 90 0 min -6,2 C -4,3 C 0,0 km/h (0 Bft)
05.12.2019 09:10 -4,5 C 4,7 C -3,9 C -4,0 C -4,0 C 0,5 C 89 % 90 % 1022,4 hPa 0,0 l/m 0,0 km/h (0 Bft) O 90 0 min -6,0 C -4,0 C 0,0 km/h (0 Bft)
05.12.2019 09:15 -4,5 C 4,7 C -3,8 C -3,8 C -3,8 C 0,7 C 89 % 90 % 1022,4 hPa 0,0 l/m 0,0 km/h (0 Bft) O 90 0 min -6,0 C -3,8 C 0,0 km/h (0 Bft)
05.12.2019 09:20 -4,5 C 4,7 C -3,7 C -3,5 C -3,5 C 1,0 C 89 % 90 % 1021,8 hPa 0,0 l/m 0,0 km/h (0 Bft) O 90 0 min -6,0 C -3,5 C 0,0 km/h (0 Bft)
05.12.2019 09:25 -4,4 C 4,7 C -3,6 C -3,5 C -3,5 C 0,9 C 89 % 90 % 1021,8 hPa 0,0 l/m 0,0 km/h (0 Bft) S 180 0 min -5,9 C -3,5 C 0,0 km/h (0 Bft)
05.12.2019 09:30 -4,1 C 4,7 C -3,4 C -3,3 C -3,3 C 0,8 C 89 % 90 % 1021,8 hPa 0,0 l/m 0,0 km/h (0 Bft) SW 225 0 min -5,6 C -3,3 C 0,0 km/h (0 Bft)
05.12.2019 09:35 -4,1 C 4,7 C -3,4 C -3,3 C -3,3 C 0,8 C 89 % 90 % 1021,8 hPa 0,0 l/m 0,0 km/h (0 Bft) S 180 0 min -5,6 C -3,3 C 0,0 km/h (0 Bft)
05.12.2019 09:40 -4,1 C 4,7 C -3,3 C -3,1 C -3,1 C 1,0 C 89 % 90 % 1022,9 hPa 0,0 l/m 0,0 km/h (0 Bft) W-SW 247 0 min -5,6 C -3,1 C 0,0 km/h (0 Bft)
05.12.2019 09:45 -4,0 C 4,7 C -3,2 C -3,0 C -3,0 C 1,0 C 89 % 90 % 1022,9 hPa 0,0 l/m 0,0 km/h (0 Bft) W-SW 247 0 min -5,5 C -3,0 C 0,0 km/h (0 Bft)
05.12.2019 09:50 -3,9 C 4,7 C -3,1 C -2,8 C -2,8 C 1,1 C 89 % 90 % 1022,9 hPa 0,0 l/m 0,0 km/h (0 Bft) S 180 0 min -5,4 C -2,8 C 0,0 km/h (0 Bft)
05.12.2019 09:55 -3,7 C 4,6 C -2,9 C -2,4 C -2,4 C 1,3 C 89 % 90 % 1022,9 hPa 0,0 l/m 0,0 km/h (0 Bft) SO 135 0 min -5,2 C -2,4 C 0,0 km/h (0 Bft)
05.12.2019 10:00 -3,6 C 4,5 C -2,5 C -2,0 C -2,0 C 1,6 C 89 % 91 % 1022,9 hPa 0,0 l/m 0,0 km/h (0 Bft) S 180 0 min -5,1 C -2,0 C 0,0 km/h (0 Bft)
05.12.2019 10:05 -3,5 C 4,5 C -2,4 C -1,6 C -1,6 C 1,9 C 89 % 91 % 1022,9 hPa 0,0 l/m 0,0 km/h (0 Bft) S 180 0 min -5,0 C -1,6 C 0,0 km/h (0 Bft)
05.12.2019 10:10 -3,3 C 4,4 C -2,1 C -1,1 C -1,1 C 2,2 C 89 % 91 % 1022,9 hPa 0,0 l/m 0,2 km/h (0 Bft) SW 225 0 min -4,8 C -1,1 C 0,0 km/h (0 Bft)
05.12.2019 10:15 -3,1 C 4,4 C -2,0 C -0,9 C -0,9 C 2,2 C 89 % 91 % 1022,9 hPa 0,0 l/m 0,2 km/h (0 Bft) S 180 0 min -4,6 C -0,9 C 1,8 km/h (1 Bft)
05.12.2019 10:20 -2,9 C 4,4 C -1,7 C -1,0 C -1,0 C 1,9 C 89 % 91 % 1023,1 hPa 0,0 l/m 0,2 km/h (0 Bft) O-NO 67 0 min -4,5 C -1,0 C 0,0 km/h (0 Bft)
05.12.2019 10:25 -2,8 C 4,4 C -1,5 C -1,1 C -1,1 C 1,7 C 89 % 91 % 1023,1 hPa 0,0 l/m 0,2 km/h (0 Bft) O-NO 67 0 min -4,4 C -1,1 C 0,0 km/h (0 Bft)
05.12.2019 10:30 -2,5 C 4,4 C -1,5 C -1,1 C -1,1 C 1,4 C 89 % 91 % 1023,1 hPa 0,0 l/m 0,2 km/h (0 Bft) NW 315 0 min -4,1 C -1,1 C 0,0 km/h (0 Bft)
05.12.2019 10:35 -2,5 C 4,4 C -1,4 C -1,1 C -1,1 C 1,4 C 89 % 91 % 1023,1 hPa 0,0 l/m 0,5 km/h (0 Bft) O-NO 67 0 min -4,1 C -1,1 C 2,9 km/h (1 Bft)
05.12.2019 10:40 -2,4 C 4,4 C -1,2 C -0,8 C -0,8 C 1,6 C 89 % 91 % 1022,7 hPa 0,0 l/m 0,3 km/h (0 Bft) NO 45 0 min -4,0 C -0,8 C 0,0 km/h (0 Bft)
05.12.2019 10:45 -2,3 C 4,4 C -1,2 C -0,4 C -0,4 C 1,9 C 89 % 91 % 1022,7 hPa 0,0 l/m 0,2 km/h (0 Bft) W 270 0 min -3,9 C -0,4 C 0,0 km/h (0 Bft)
05.12.2019 10:50 -2,1 C 4,4 C -0,9 C 0,1 C 0,1 C 2,2 C 89 % 91 % 1022,7 hPa 0,0 l/m 0,8 km/h (0 Bft) S-SO 157 0 min -3,7 C 0,1 C 2,9 km/h (1 Bft)
05.12.2019 10:55 -1,9 C 4,4 C -0,8 C 0,5 C 0,5 C 2,4 C 89 % 91 % 1022,7 hPa 0,0 l/m 2,1 km/h (1 Bft) S 180 0 min -3,5 C 0,5 C 6,3 km/h (2 Bft)
05.12.2019 11:00 -1,5 C 4,3 C -0,7 C 0,7 C 0,7 C 2,2 C 89 % 91 % 1022,7 hPa 0,0 l/m 2,1 km/h (1 Bft) W-SW 247 0 min -3,1 C 0,7 C 2,6 km/h (1 Bft)
05.12.2019 11:05 -1,5 C 4,3 C -0,6 C 0,9 C 0,9 C 2,4 C 89 % 91 % 1022,7 hPa 0,0 l/m 1,9 km/h (1 Bft) S 180 0 min -3,1 C 0,9 C 3,4 km/h (1 Bft)
05.12.2019 11:10 -1,2 C 4,2 C -0,5 C 2,2 C 2,2 C 3,4 C 89 % 91 % 1022,7 hPa 0,0 l/m 1,6 km/h (1 Bft) SW 225 5 min -2,8 C 2,2 C 0,0 km/h (0 Bft)
05.12.2019 11:15 -0,9 C 4,2 C -0,4 C 2,8 C 2,8 C 3,7 C 89 % 91 % 1022,7 hPa 0,0 l/m 2,1 km/h (1 Bft) S 180 5 min -2,5 C 2,8 C 2,6 km/h (1 Bft)
05.12.2019 11:20 -0,5 C 4,2 C -0,2 C 2,8 C 2,8 C 3,3 C 88 % 91 % 1022,6 hPa 0,0 l/m 1,9 km/h (1 Bft) S 180 5 min -2,2 C 2,8 C 0,0 km/h (0 Bft)
05.12.2019 11:25 -0,3 C 4,2 C -0,1 C 2,8 C 2,8 C 3,1 C 89 % 91 % 1022,6 hPa 0,0 l/m 2,4 km/h (1 Bft) W-SW 247 0 min -1,9 C 2,8 C 2,7 km/h (1 Bft)
05.12.2019 11:30 0,1 C 4,2 C 0,1 C 3,0 C 3,0 C 2,9 C 89 % 91 % 1022,6 hPa 0,0 l/m 1,9 km/h (1 Bft) S-SO 157 0 min -1,5 C 3,0 C 0,0 km/h (0 Bft)
05.12.2019 11:35 0,4 C 4,2 C 0,3 C 3,4 C 3,4 C 3,0 C 89 % 91 % 1022,6 hPa 0,0 l/m 1,4 km/h (1 Bft) SO 135 0 min -1,2 C 3,4 C 6,6 km/h (2 Bft)
05.12.2019 11:40 0,7 C 4,2 C 0,5 C 4,1 C 4,1 C 3,4 C 88 % 91 % 1022,6 hPa 0,0 l/m 1,0 km/h (0 Bft) S-SW 202 5 min -1,1 C 4,1 C 4,0 km/h (1 Bft)
05.12.2019 11:45 1,1 C 4,2 C 0,6 C 4,4 C 4,4 C 3,3 C 88 % 90 % 1022,6 hPa 0,0 l/m 1,1 km/h (1 Bft) NO 45 5 min -0,7 C 4,4 C 2,3 km/h (1 Bft)
05.12.2019 11:50 1,5 C 4,2 C 0,7 C 4,7 C 4,7 C 3,2 C 88 % 90 % 1022,6 hPa 0,0 l/m 1,9 km/h (1 Bft) W-SW 247 0 min -0,3 C 4,7 C 3,2 km/h (1 Bft)
05.12.2019 11:55 1,7 C 4,2 C 0,8 C 4,2 C 4,2 C 2,5 C 88 % 90 % 1022,6 hPa 0,0 l/m 2,3 km/h (1 Bft) S-SW 202 0 min -0,1 C 4,2 C 5,5 km/h (1 Bft)
05.12.2019 12:00 2,1 C 4,2 C 1,0 C 3,3 C 3,3 C 1,2 C 88 % 90 % 1022,4 hPa 0,0 l/m 3,4 km/h (1 Bft) S-SW 202 0 min 0,3 C 3,3 C 2,9 km/h (1 Bft)
05.12.2019 12:05 2,1 C 4,2 C 1,0 C 3,1 C 3,1 C 1,0 C 88 % 90 % 1022,4 hPa 0,0 l/m 3,7 km/h (1 Bft) SW 225 0 min 0,3 C 3,1 C 3,5 km/h (1 Bft)
05.12.2019 12:10 2,5 C 4,2 C 1,3 C 3,6 C 3,6 C 1,1 C 87 % 90 % 1022,4 hPa 0,0 l/m 2,7 km/h (1 Bft) S 180 0 min 0,6 C 3,6 C 4,5 km/h (1 Bft)
05.12.2019 12:15 2,7 C 4,2 C 1,4 C 3,9 C 3,9 C 1,2 C 87 % 90 % 1022,4 hPa 0,0 l/m 2,3 km/h (1 Bft) S 180 0 min 0,8 C 3,9 C 6,9 km/h (2 Bft)
05.12.2019 12:20 2,8 C 4,2 C 1,5 C 3,6 C 3,6 C 0,8 C 86 % 90 % 1022,6 hPa 0,0 l/m 3,2 km/h (1 Bft) SW 225 0 min 0,7 C 3,6 C 3,9 km/h (1 Bft)
05.12.2019 12:25 3,0 C 4,2 C 1,6 C 3,4 C 3,4 C 0,4 C 86 % 90 % 1022,6 hPa 0,0 l/m 3,5 km/h (1 Bft) SW 225 0 min 0,9 C 3,4 C 4,8 km/h (1 Bft)
05.12.2019 12:30 3,1 C 4,1 C 1,7 C 3,8 C 3,8 C 0,7 C 85 % 90 % 1022,6 hPa 0,0 l/m 3,2 km/h (1 Bft) W-NW 292 0 min 0,8 C 3,8 C 2,3 km/h (1 Bft)
05.12.2019 12:35 3,1 C 4,1 C 1,8 C 4,1 C 4,1 C 1,0 C 85 % 89 % 1022,6 hPa 0,0 l/m 2,3 km/h (1 Bft) SW 225 0 min 0,8 C 4,1 C 7,9 km/h (2 Bft)
05.12.2019 12:40 3,2 C 4,1 C 2,0 C 4,3 C 4,3 C 1,1 C 84 % 89 % 1022,2 hPa 0,0 l/m 2,1 km/h (1 Bft) S-SW 202 0 min 0,8 C 4,3 C 5,8 km/h (2 Bft)
05.12.2019 12:45 3,2 C 4,1 C 2,0 C 4,2 C 4,2 C 1,0 C 83 % 88 % 1022,2 hPa 0,0 l/m 3,2 km/h (1 Bft) S-SW 202 0 min 0,6 C 4,2 C 5,8 km/h (2 Bft)
05.12.2019 12:50 3,3 C 4,1 C 2,1 C 3,8 C 3,8 C 0,5 C 82 % 88 % 1022,2 hPa 0,0 l/m 4,8 km/h (1 Bft) W-NW 292 0 min 0,5 C 2,8 C 6,8 km/h (2 Bft)
05.12.2019 12:55 3,5 C 4,1 C 2,2 C 3,9 C 3,9 C 0,4 C 82 % 89 % 1022,2 hPa 0,0 l/m 4,8 km/h (1 Bft) S-SW 202 0 min 0,7 C 2,9 C 10,6 km/h (2 Bft)
05.12.2019 13:00 3,5 C 4,0 C 2,3 C 4,0 C 4,0 C 0,5 C 81 % 88 % 1022,2 hPa 0,0 l/m 5,1 km/h (1 Bft) SW 225 0 min 0,6 C 2,9 C 6,0 km/h (2 Bft)
05.12.2019 13:05 3,5 C 4,0 C 2,3 C 3,7 C 3,7 C 0,2 C 80 % 87 % 1022,2 hPa 0,0 l/m 6,3 km/h (2 Bft) S 180 0 min 0,4 C 2,1 C 11,4 km/h (2 Bft)
05.12.2019 13:10 3,5 C 4,0 C 2,3 C 3,7 C 3,7 C 0,2 C 79 % 87 % 1022,2 hPa 0,0 l/m 6,9 km/h (2 Bft) SW 225 0 min 0,2 C 1,9 C 6,9 km/h (2 Bft)
05.12.2019 13:15 3,6 C 4,0 C 2,4 C 3,7 C 3,7 C 0,1 C 79 % 86 % 1022,2 hPa 0,0 l/m 6,9 km/h (2 Bft) SW 225 0 min 0,3 C 1,9 C 12,6 km/h (3 Bft)
05.12.2019 13:20 3,6 C 4,0 C 2,5 C 3,9 C 3,9 C 0,3 C 78 % 85 % 1022,2 hPa 0,0 l/m 7,2 km/h (2 Bft) SW 225 0 min 0,1 C 2,1 C 10,1 km/h (2 Bft)
05.12.2019 13:25 3,6 C 4,0 C 2,5 C 3,9 C 3,9 C 0,3 C 78 % 86 % 1022,2 hPa 0,0 l/m 7,2 km/h (2 Bft) S 180 0 min 0,1 C 2,1 C 18,8 km/h (3 Bft)
05.12.2019 13:30 3,7 C 4,0 C 2,5 C 3,7 C 3,6 C 0,0 C 77 % 85 % 1022,2 hPa 0,0 l/m 7,2 km/h (2 Bft) SW 225 0 min 0,1 C 1,7 C 7,9 km/h (2 Bft)
05.12.2019 13:35 3,6 C 4,0 C 2,6 C 3,9 C 3,2 C 0,3 C 77 % 85 % 1022,2 hPa 0,0 l/m 7,7 km/h (2 Bft) SO 135 0 min -0,0 C 1,1 C 18,8 km/h (3 Bft)
05.12.2019 13:40 3,7 C 4,0 C 2,6 C 4,1 C 4,1 C 0,4 C 77 % 85 % 1022,2 hPa 0,0 l/m 6,6 km/h (2 Bft) S-SO 157 0 min 0,1 C 2,5 C 11,6 km/h (2 Bft)
05.12.2019 13:45 3,6 C 4,0 C 2,6 C 4,3 C 4,3 C 0,7 C 77 % 85 % 1022,2 hPa 0,0 l/m 6,6 km/h (2 Bft) S 180 0 min -0,0 C 2,7 C 3,1 km/h (1 Bft)
05.12.2019 13:50 3,6 C 4,0 C 2,7 C 4,7 C 4,7 C 1,1 C 76 % 85 % 1022,2 hPa 0,0 l/m 6,6 km/h (2 Bft) W-SW 247 0 min -0,2 C 3,2 C 9,5 km/h (2 Bft)
05.12.2019 13:55 3,6 C 4,0 C 2,7 C 4,7 C 4,7 C 1,1 C 76 % 85 % 1022,2 hPa 0,0 l/m 5,8 km/h (2 Bft) W 270 0 min -0,2 C 3,4 C 3,4 km/h (1 Bft)
05.12.2019 14:00 3,6 C 4,0 C 2,7 C 4,9 C 4,9 C 1,3 C 76 % 85 % 1022,1 hPa 0,0 l/m 5,0 km/h (1 Bft) W-SW 247 0 min -0,2 C 4,0 C 10,1 km/h (2 Bft)
05.12.2019 14:05 3,6 C 4,0 C 2,6 C 5,2 C 5,2 C 1,6 C 76 % 84 % 1022,1 hPa 0,0 l/m 4,3 km/h (1 Bft) NO 45 0 min -0,2 C 5,2 C 2,9 km/h (1 Bft)
05.12.2019 14:10 3,6 C 4,0 C 2,6 C 5,5 C 5,5 C 1,9 C 76 % 85 % 1022,1 hPa 0,0 l/m 4,0 km/h (1 Bft) S 180 0 min -0,2 C 5,5 C 6,3 km/h (2 Bft)
05.12.2019 14:15 3,6 C 4,0 C 2,6 C 5,4 C 5,4 C 1,8 C 76 % 84 % 1022,1 hPa 0,0 l/m 4,2 km/h (1 Bft) S-SO 157 0 min -0,2 C 5,4 C 5,3 km/h (1 Bft)
05.12.2019 14:20 3,6 C 4,0 C 2,6 C 4,9 C 4,9 C 1,3 C 76 % 84 % 1021,9 hPa 0,0 l/m 4,3 km/h (1 Bft) W-SW 247 0 min -0,2 C 4,9 C 3,7 km/h (1 Bft)
05.12.2019 14:25 3,7 C 4,0 C 2,6 C 5,3 C 5,3 C 1,6 C 76 % 84 % 1021,9 hPa 0,0 l/m 3,9 km/h (1 Bft) N-NW 337 0 min -0,1 C 5,3 C 4,2 km/h (1 Bft)
05.12.2019 14:30 3,7 C 4,0 C 2,5 C 5,6 C 5,6 C 1,9 C 76 % 84 % 1021,9 hPa 0,0 l/m 3,5 km/h (1 Bft) SW 225 0 min -0,1 C 5,6 C 4,5 km/h (1 Bft)
05.12.2019 14:35 3,5 C 4,0 C 2,5 C 5,3 C 5,3 C 1,8 C 76 % 84 % 1021,9 hPa 0,0 l/m 3,7 km/h (1 Bft) S 180 0 min -0,3 C 5,3 C 2,4 km/h (1 Bft)
05.12.2019 14:40 3,4 C 4,0 C 2,4 C 5,3 C 5,3 C 1,9 C 76 % 84 % 1022,2 hPa 0,0 l/m 3,7 km/h (1 Bft) SO 135 0 min -0,4 C 5,3 C 6,0 km/h (2 Bft)
05.12.2019 14:45 3,5 C 4,0 C 2,4 C 5,6 C 5,6 C 2,1 C 76 % 84 % 1022,2 hPa 0,0 l/m 3,1 km/h (1 Bft) SO 135 0 min -0,3 C 5,6 C 2,3 km/h (1 Bft)
05.12.2019 14:50 3,3 C 4,1 C 2,3 C 4,7 C 4,7 C 1,4 C 76 % 84 % 1022,2 hPa 0,0 l/m 3,1 km/h (1 Bft) SW 225 0 min -0,5 C 4,7 C 3,5 km/h (1 Bft)
05.12.2019 14:55 3,3 C 4,1 C 2,3 C 4,2 C 4,2 C 0,9 C 76 % 84 % 1022,2 hPa 0,0 l/m 2,7 km/h (1 Bft) O-NO 67 0 min -0,5 C 4,2 C 6,0 km/h (2 Bft)
05.12.2019 15:00 3,2 C 4,1 C 2,2 C 3,3 C 3,3 C 0,1 C 76 % 84 % 1021,8 hPa 0,0 l/m 3,4 km/h (1 Bft) NW 315 0 min -0,6 C 3,3 C 2,1 km/h (1 Bft)
05.12.2019 15:05 3,2 C 4,1 C 2,1 C 3,1 C 2,8 C 0,0 C 76 % 84 % 1021,8 hPa 0,0 l/m 3,5 km/h (1 Bft) SO 135 0 min -0,6 C 2,8 C 4,0 km/h (1 Bft)
05.12.2019 15:10 3,1 C 4,1 C 2,0 C 3,0 C 2,8 C 0,0 C 76 % 84 % 1021,8 hPa 0,0 l/m 2,9 km/h (1 Bft) NW 315 0 min -0,7 C 2,8 C 1,8 km/h (1 Bft)
05.12.2019 15:15 3,1 C 4,2 C 1,9 C 2,9 C 2,6 C 0,0 C 77 % 85 % 1021,8 hPa 0,0 l/m 2,9 km/h (1 Bft) O-SO 112 0 min -0,5 C 2,6 C 1,9 km/h (1 Bft)
05.12.2019 15:20 3,1 C 4,2 C 1,9 C 2,9 C 2,6 C 0,0 C 77 % 85 % 1021,8 hPa 0,0 l/m 2,6 km/h (1 Bft) O 90 0 min -0,5 C 2,6 C 2,1 km/h (1 Bft)
05.12.2019 15:25 3,1 C 4,2 C 1,9 C 2,9 C 2,5 C 0,0 C 77 % 85 % 1021,8 hPa 0,0 l/m 1,8 km/h (1 Bft) SO 135 0 min -0,5 C 2,5 C 2,6 km/h (1 Bft)
05.12.2019 15:30 2,9 C 4,2 C 1,8 C 2,7 C 2,2 C 0,0 C 77 % 85 % 1021,8 hPa 0,0 l/m 2,9 km/h (1 Bft) SO 135 0 min -0,7 C 2,2 C 6,3 km/h (2 Bft)
05.12.2019 15:35 2,9 C 4,2 C 1,7 C 2,5 C 1,6 C 0,0 C 77 % 85 % 1021,8 hPa 0,0 l/m 3,9 km/h (1 Bft) SO 135 0 min -0,7 C 1,6 C 3,9 km/h (1 Bft)
05.12.2019 15:40 2,8 C 4,2 C 1,7 C 2,3 C 1,3 C 0,0 C 77 % 85 % 1021,7 hPa 0,0 l/m 4,2 km/h (1 Bft) SW 225 0 min -0,8 C 1,3 C 6,1 km/h (2 Bft)
05.12.2019 15:45 2,9 C 4,2 C 1,6 C 2,3 C 1,2 C 0,0 C 77 % 85 % 1021,7 hPa 0,0 l/m 4,2 km/h (1 Bft) S 180 0 min -0,7 C 1,2 C 1,9 km/h (1 Bft)
05.12.2019 15:50 2,7 C 4,2 C 1,5 C 2,3 C 1,4 C 0,0 C 77 % 85 % 1021,7 hPa 0,0 l/m 3,1 km/h (1 Bft) S 180 0 min -0,9 C 1,4 C 6,9 km/h (2 Bft)
05.12.2019 15:55 2,6 C 4,2 C 1,4 C 2,3 C 1,8 C 0,0 C 77 % 85 % 1021,7 hPa 0,0 l/m 2,3 km/h (1 Bft) S 180 0 min -1,0 C 1,8 C 2,4 km/h (1 Bft)
05.12.2019 16:00 2,6 C 4,2 C 1,2 C 2,1 C 1,1 C 0,0 C 77 % 85 % 1021,8 hPa 0,0 l/m 3,4 km/h (1 Bft) S 180 0 min -1,0 C 1,1 C 6,0 km/h (2 Bft)
05.12.2019 16:05 2,5 C 4,2 C 1,2 C 2,0 C 1,1 C 0,0 C 78 % 85 % 1021,8 hPa 0,0 l/m 3,1 km/h (1 Bft) S 180 0 min -0,9 C 1,1 C 0,0 km/h (0 Bft)
05.12.2019 16:10 2,4 C 4,2 C 1,1 C 1,8 C 0,7 C 0,0 C 78 % 85 % 1021,8 hPa 0,0 l/m 3,5 km/h (1 Bft) SO 135 0 min -1,0 C 0,7 C 6,6 km/h (2 Bft)
05.12.2019 16:15 2,4 C 4,2 C 1,1 C 1,8 C 0,5 C 0,0 C 78 % 85 % 1021,8 hPa 0,0 l/m 3,7 km/h (1 Bft) S 180 0 min -1,0 C 0,5 C 2,9 km/h (1 Bft)
05.12.2019 16:20 2,2 C 4,2 C 1,1 C 1,8 C 0,9 C 0,0 C 78 % 85 % 1021,4 hPa 0,0 l/m 2,7 km/h (1 Bft) S 180 0 min -1,2 C 0,9 C 5,3 km/h (1 Bft)
05.12.2019 16:25 2,3 C 4,2 C 1,0 C 1,8 C 0,7 C 0,0 C 78 % 85 % 1021,4 hPa 0,0 l/m 2,7 km/h (1 Bft) SO 135 0 min -1,1 C 0,7 C 13,0 km/h (3 Bft)
05.12.2019 16:30 2,1 C 4,2 C 0,9 C 1,5 C 0,2 C 0,0 C 78 % 85 % 1021,4 hPa 0,0 l/m 3,5 km/h (1 Bft) O-SO 112 0 min -1,3 C 0,2 C 2,6 km/h (1 Bft)
05.12.2019 16:35 2,0 C 4,4 C 0,7 C 1,3 C -0,1 C 0,0 C 78 % 85 % 1021,4 hPa 0,0 l/m 3,7 km/h (1 Bft) S 180 0 min -1,4 C -0,1 C 2,3 km/h (1 Bft)
05.12.2019 16:40 1,9 C 4,4 C 0,7 C 1,5 C 0,7 C 0,0 C 79 % 85 % 1021,2 hPa 0,0 l/m 2,1 km/h (1 Bft) S 180 0 min -1,3 C 0,7 C 0,0 km/h (0 Bft)
05.12.2019 16:45 1,9 C 4,4 C 0,7 C 1,4 C 0,4 C 0,0 C 79 % 85 % 1021,2 hPa 0,0 l/m 2,7 km/h (1 Bft) SO 135 0 min -1,3 C 0,4 C 2,7 km/h (1 Bft)
05.12.2019 16:50 1,7 C 4,4 C 0,6 C 1,3 C 0,5 C 0,0 C 79 % 85 % 1021,2 hPa 0,0 l/m 2,3 km/h (1 Bft) O-SO 112 0 min -1,5 C 0,5 C 2,1 km/h (1 Bft)
05.12.2019 16:55 1,6 C 4,4 C 0,5 C 1,2 C 0,4 C 0,0 C 79 % 85 % 1021,2 hPa 0,0 l/m 2,4 km/h (1 Bft) S 180 0 min -1,6 C 0,4 C 3,9 km/h (1 Bft)
05.12.2019 17:00 1,7 C 4,4 C 0,3 C 1,2 C 0,1 C 0,0 C 79 % 86 % 1021,1 hPa 0,0 l/m 2,6 km/h (1 Bft) SW 225 0 min -1,5 C 0,1 C 3,2 km/h (1 Bft)
05.12.2019 17:05 1,6 C 4,4 C 0,3 C 1,1 C 0,1 C 0,0 C 79 % 86 % 1021,1 hPa 0,0 l/m 1,9 km/h (1 Bft) S-SW 202 0 min -1,6 C 0,1 C 0,0 km/h (0 Bft)
05.12.2019 17:10 1,4 C 4,4 C 0,2 C 1,0 C 0,1 C 0,0 C 80 % 86 % 1021,1 hPa 0,0 l/m 2,4 km/h (1 Bft) SO 135 0 min -1,7 C 0,1 C 3,4 km/h (1 Bft)
05.12.2019 17:15 1,5 C 4,4 C 0,1 C 1,0 C 0,1 C 0,0 C 80 % 86 % 1021,1 hPa 0,0 l/m 2,1 km/h (1 Bft) W-SW 247 0 min -1,6 C 0,1 C 6,3 km/h (2 Bft)
05.12.2019 17:20 1,3 C 4,4 C 0,0 C 0,9 C 0,0 C 0,0 C 80 % 86 % 1021,1 hPa 0,0 l/m 2,1 km/h (1 Bft) S-SO 157 0 min -1,8 C 0,0 C 0,0 km/h (0 Bft)
05.12.2019 17:25 1,3 C 4,4 C -0,1 C 0,8 C -0,2 C 0,0 C 80 % 86 % 1021,1 hPa 0,0 l/m 2,3 km/h (1 Bft) S 180 0 min -1,8 C -0,2 C 5,8 km/h (2 Bft)
05.12.2019 17:30 1,2 C 4,4 C -0,2 C 0,7 C -0,2 C 0,0 C 80 % 86 % 1021,1 hPa 0,0 l/m 1,8 km/h (1 Bft) S-SW 202 0 min -1,9 C -0,2 C 2,9 km/h (1 Bft)
05.12.2019 17:35 1,2 C 4,4 C -0,4 C 0,7 C -0,4 C 0,0 C 80 % 86 % 1021,1 hPa 0,0 l/m 1,6 km/h (1 Bft) S-SW 202 0 min -1,9 C -0,4 C 0,0 km/h (0 Bft)
05.12.2019 17:40 1,1 C 4,4 C -0,4 C 0,5 C -0,7 C 0,0 C 80 % 86 % 1021,1 hPa 0,0 l/m 1,1 km/h (1 Bft) S-SW 202 0 min -2,0 C -0,7 C 3,4 km/h (1 Bft)
05.12.2019 17:45 1,0 C 4,4 C -0,5 C 0,4 C -0,7 C 0,0 C 80 % 86 % 1021,1 hPa 0,0 l/m 1,0 km/h (0 Bft) SW 225 0 min -2,1 C -0,7 C 2,6 km/h (1 Bft)
05.12.2019 17:50 0,8 C 4,4 C -0,6 C 0,3 C -0,8 C 0,0 C 80 % 86 % 1021,1 hPa 0,0 l/m 1,3 km/h (1 Bft) S-SW 202 0 min -2,2 C -0,8 C 3,4 km/h (1 Bft)
05.12.2019 17:55 0,8 C 4,4 C -0,6 C 0,3 C -0,8 C 0,0 C 81 % 86 % 1021,1 hPa 0,0 l/m 2,3 km/h (1 Bft) S-SO 157 0 min -2,1 C -0,8 C 5,3 km/h (1 Bft)
05.12.2019 18:00 0,8 C 4,4 C -0,5 C 0,0 C -1,5 C 0,0 C 81 % 86 % 1021,1 hPa 0,0 l/m 3,4 km/h (1 Bft) S-SO 157 0 min -2,1 C -1,5 C 7,7 km/h (2 Bft)
05.12.2019 18:05 0,8 C 4,4 C -0,5 C 0,0 C -1,7 C 0,0 C 81 % 87 % 1021,1 hPa 0,0 l/m 4,0 km/h (1 Bft) S-SO 157 0 min -2,1 C -1,7 C 6,0 km/h (2 Bft)
05.12.2019 18:10 0,9 C 4,4 C -0,4 C 0,0 C -1,9 C 0,0 C 81 % 86 % 1021,1 hPa 0,0 l/m 5,1 km/h (1 Bft) S-SO 157 0 min -2,0 C -3,8 C 3,4 km/h (1 Bft)
05.12.2019 18:15 0,9 C 4,4 C -0,5 C 0,1 C -1,6 C 0,0 C 81 % 87 % 1021,1 hPa 0,0 l/m 4,5 km/h (1 Bft) S-SW 202 0 min -2,0 C -1,6 C 2,6 km/h (1 Bft)
05.12.2019 18:20 0,9 C 4,5 C -0,6 C 0,4 C -0,6 C 0,0 C 81 % 87 % 1021,1 hPa 0,0 l/m 2,4 km/h (1 Bft) S 180 0 min -2,0 C -0,6 C 2,6 km/h (1 Bft)
05.12.2019 18:25 0,7 C 4,5 C -0,7 C 0,2 C -0,7 C 0,0 C 81 % 87 % 1021,1 hPa 0,0 l/m 1,8 km/h (1 Bft) S 180 0 min -2,2 C -0,7 C 2,3 km/h (1 Bft)
05.12.2019 18:30 0,5 C 4,5 C -0,8 C 0,1 C -0,8 C 0,0 C 81 % 87 % 1021,1 hPa 0,0 l/m 2,3 km/h (1 Bft) SO 135 0 min -2,4 C -0,8 C 4,2 km/h (1 Bft)
05.12.2019 18:35 0,6 C 4,5 C -0,7 C 0,1 C -0,8 C 0,0 C 82 % 87 % 1021,1 hPa 0,0 l/m 1,8 km/h (1 Bft) SO 135 0 min -2,1 C -0,8 C 0,0 km/h (0 Bft)
05.12.2019 18:40 0,5 C 4,5 C -0,8 C 0,0 C -1,1 C 0,0 C 82 % 87 % 1021,1 hPa 0,0 l/m 1,1 km/h (1 Bft) S-SW 202 0 min -2,2 C -1,1 C 0,0 km/h (0 Bft)
05.12.2019 18:45 0,5 C 4,5 C -1,0 C -0,1 C -1,2 C 0,0 C 82 % 87 % 1021,1 hPa 0,0 l/m 1,0 km/h (0 Bft) S-SW 202 0 min -2,2 C -1,2 C 2,7 km/h (1 Bft)
05.12.2019 18:50 0,3 C 4,5 C -1,1 C -0,3 C -1,4 C 0,0 C 82 % 87 % 1021,1 hPa 0,0 l/m 1,1 km/h (1 Bft) S 180 0 min -2,4 C -1,4 C 3,4 km/h (1 Bft)
05.12.2019 18:55 0,3 C 4,5 C -1,0 C -0,2 C -1,3 C 0,0 C 82 % 87 % 1021,1 hPa 0,0 l/m 2,4 km/h (1 Bft) S 180 0 min -2,4 C -1,3 C 4,3 km/h (1 Bft)
05.12.2019 19:00 0,3 C 4,5 C -0,9 C -0,4 C -1,9 C 0,0 C 82 % 87 % 1021,1 hPa 0,0 l/m 3,4 km/h (1 Bft) S 180 0 min -2,4 C -1,9 C 6,4 km/h (2 Bft)
05.12.2019 19:05 0,3 C 4,5 C -0,9 C -0,4 C -1,7 C 0,0 C 82 % 87 % 1021,1 hPa 0,0 l/m 3,2 km/h (1 Bft) SO 135 0 min -2,4 C -1,7 C 2,7 km/h (1 Bft)
05.12.2019 19:10 0,3 C 4,5 C -0,8 C -0,4 C -1,8 C 0,0 C 82 % 87 % 1021,1 hPa 0,0 l/m 3,4 km/h (1 Bft) SO 135 0 min -2,4 C -1,8 C 2,3 km/h (1 Bft)
05.12.2019 19:15 0,3 C 4,5 C -0,9 C -0,2 C -1,2 C 0,0 C 82 % 87 % 1021,1 hPa 0,0 l/m 2,4 km/h (1 Bft) W 270 0 min -2,4 C -1,2 C 1,9 km/h (1 Bft)
05.12.2019 19:20 0,3 C 4,5 C -0,9 C -0,2 C -1,2 C 0,0 C 82 % 87 % 1021,2 hPa 0,0 l/m 1,8 km/h (1 Bft) SO 135 0 min -2,4 C -1,2 C 2,7 km/h (1 Bft)
05.12.2019 19:25 0,3 C 4,5 C -0,9 C -0,3 C -1,6 C 0,0 C 82 % 87 % 1021,2 hPa 0,0 l/m 2,7 km/h (1 Bft) S-SO 157 0 min -2,4 C -1,6 C 3,9 km/h (1 Bft)
05.12.2019 19:30 0,3 C 4,4 C -0,9 C -0,5 C -2,1 C 0,0 C 83 % 87 % 1021,2 hPa 0,0 l/m 3,9 km/h (1 Bft) S-SO 157 0 min -2,2 C -2,1 C 5,1 km/h (1 Bft)
05.12.2019 19:35 0,3 C 4,4 C -0,8 C -0,5 C -2,2 C 0,0 C 83 % 87 % 1021,2 hPa 0,0 l/m 4,0 km/h (1 Bft) S 180 0 min -2,2 C -2,2 C 2,6 km/h (1 Bft)
05.12.2019 19:40 0,3 C 4,4 C -0,9 C -0,5 C -2,1 C 0,0 C 83 % 87 % 1021,2 hPa 0,0 l/m 4,0 km/h (1 Bft) SO 135 0 min -2,2 C -2,1 C 7,6 km/h (2 Bft)
05.12.2019 19:45 0,2 C 4,4 C -0,9 C -0,6 C -2,2 C 0,0 C 83 % 87 % 1021,2 hPa 0,0 l/m 4,2 km/h (1 Bft) S-SO 157 0 min -2,3 C -2,2 C 3,5 km/h (1 Bft)
05.12.2019 19:50 0,0 C 4,5 C -1,0 C -0,6 C -1,7 C 0,0 C 83 % 87 % 1021,2 hPa 0,0 l/m 3,1 km/h (1 Bft) W-SW 247 0 min -2,5 C -1,7 C 1,9 km/h (1 Bft)
05.12.2019 19:55 0,0 C 4,5 C -1,0 C -0,5 C -1,6 C 0,0 C 83 % 87 % 1021,2 hPa 0,0 l/m 2,7 km/h (1 Bft) SW 225 0 min -2,5 C -1,6 C 4,2 km/h (1 Bft)
05.12.2019 20:00 0,1 C 4,4 C -1,0 C -0,7 C -2,2 C 0,0 C 83 % 87 % 1021,2 hPa 0,0 l/m 3,5 km/h (1 Bft) SO 135 0 min -2,4 C -2,2 C 6,9 km/h (2 Bft)
05.12.2019 20:05 0,1 C 4,4 C -0,9 C -0,8 C -2,6 C 0,0 C 83 % 87 % 1021,2 hPa 0,0 l/m 4,2 km/h (1 Bft) S-SO 157 0 min -2,4 C -2,6 C 5,1 km/h (1 Bft)
05.12.2019 20:10 0,0 C 4,5 C -1,0 C -0,7 C -2,1 C 0,0 C 83 % 87 % 1021,2 hPa 0,0 l/m 3,4 km/h (1 Bft) S-SO 157 0 min -2,5 C -2,1 C 2,6 km/h (1 Bft)
05.12.2019 20:15 -0,1 C 4,4 C -1,0 C -0,6 C -1,6 C 0,0 C 83 % 87 % 1021,2 hPa 0,0 l/m 2,6 km/h (1 Bft) S 180 0 min -2,6 C -1,6 C 4,8 km/h (1 Bft)
05.12.2019 20:20 0,1 C 4,4 C -1,0 C -0,7 C -2,4 C 0,0 C 83 % 87 % 1020,6 hPa 0,0 l/m 4,0 km/h (1 Bft) S 180 0 min -2,4 C -2,4 C 5,8 km/h (2 Bft)
05.12.2019 20:25 -0,1 C 4,4 C -1,0 C -1,0 C -2,8 C 0,0 C 83 % 87 % 1020,6 hPa 0,0 l/m 4,8 km/h (1 Bft) S-SW 202 0 min -2,6 C -4,7 C 2,6 km/h (1 Bft)
05.12.2019 20:30 -0,1 C 4,4 C -1,0 C -0,8 C -2,2 C 0,0 C 83 % 87 % 1020,6 hPa 0,0 l/m 3,5 km/h (1 Bft) S-SO 157 0 min -2,6 C -2,2 C 2,1 km/h (1 Bft)
05.12.2019 20:35 -0,1 C 4,4 C -1,1 C -0,6 C -1,6 C 0,0 C 83 % 87 % 1020,6 hPa 0,0 l/m 2,6 km/h (1 Bft) SW 225 0 min -2,6 C -1,6 C 4,0 km/h (1 Bft)
05.12.2019 20:40 -0,1 C 4,4 C -1,2 C -0,6 C -1,5 C 0,0 C 83 % 87 % 1020,6 hPa 0,0 l/m 1,8 km/h (1 Bft) NO 45 0 min -2,6 C -1,5 C 0,0 km/h (0 Bft)
05.12.2019 20:45 -0,1 C 4,4 C -1,3 C -0,6 C -1,7 C 0,0 C 83 % 87 % 1020,6 hPa 0,0 l/m 1,4 km/h (1 Bft) S 180 0 min -2,6 C -1,7 C 6,3 km/h (2 Bft)
05.12.2019 20:50 -0,1 C 4,4 C -1,3 C -0,6 C -1,7 C 0,0 C 83 % 87 % 1020,6 hPa 0,0 l/m 1,1 km/h (1 Bft) NO 45 0 min -2,6 C -1,7 C 0,0 km/h (0 Bft)
05.12.2019 20:55 -0,3 C 4,4 C -1,5 C -0,8 C -1,8 C 0,0 C 83 % 87 % 1020,6 hPa 0,0 l/m 1,1 km/h (1 Bft) O-NO 67 0 min -2,8 C -1,8 C 0,0 km/h (0 Bft)
05.12.2019 21:00 -0,5 C 4,4 C -1,7 C -1,0 C -2,1 C 0,0 C 83 % 87 % 1020,4 hPa 0,0 l/m 0,3 km/h (0 Bft) S 180 0 min -3,0 C -2,1 C 0,0 km/h (0 Bft)
05.12.2019 21:05 -0,5 C 4,4 C -1,8 C -1,0 C -2,1 C 0,0 C 83 % 87 % 1020,4 hPa 0,0 l/m 0,5 km/h (0 Bft) S-SO 157 0 min -3,0 C -2,1 C 0,0 km/h (0 Bft)
05.12.2019 21:10 -0,5 C 4,4 C -1,9 C -1,1 C -2,3 C 0,0 C 83 % 87 % 1020,4 hPa 0,0 l/m 0,2 km/h (0 Bft) S-SO 157 0 min -3,0 C -2,3 C 0,0 km/h (0 Bft)
05.12.2019 21:15 -0,7 C 4,5 C -2,1 C -1,3 C -2,4 C 0,0 C 83 % 87 % 1020,4 hPa 0,0 l/m 0,2 km/h (0 Bft) SO 135 0 min -3,2 C -2,4 C 2,1 km/h (1 Bft)
05.12.2019 21:20 -0,7 C 4,4 C -2,1 C -1,3 C -2,4 C 0,0 C 83 % 87 % 1020,4 hPa 0,0 l/m 1,0 km/h (0 Bft) SW 225 0 min -3,2 C -2,4 C 2,6 km/h (1 Bft)
05.12.2019 21:25 -0,7 C 4,4 C -1,9 C -1,2 C -2,3 C 0,0 C 84 % 87 % 1020,4 hPa 0,0 l/m 1,3 km/h (1 Bft) SO 135 0 min -3,1 C -2,3 C 0,0 km/h (0 Bft)
05.12.2019 21:30 -0,7 C 4,4 C -1,9 C -1,2 C -2,3 C 0,0 C 84 % 87 % 1020,4 hPa 0,0 l/m 1,1 km/h (1 Bft) SO 135 0 min -3,1 C -2,3 C 0,0 km/h (0 Bft)
05.12.2019 21:35 -0,8 C 4,4 C -2,1 C -1,3 C -2,3 C 0,0 C 84 % 87 % 1020,4 hPa 0,0 l/m 0,5 km/h (0 Bft) S-SO 157 0 min -3,2 C -2,3 C 0,0 km/h (0 Bft)
05.12.2019 21:40 -0,9 C 4,4 C -2,1 C -1,4 C -2,4 C 0,0 C 84 % 87 % 1020,4 hPa 0,0 l/m 0,8 km/h (0 Bft) SW 225 0 min -3,3 C -2,4 C 3,9 km/h (1 Bft)
05.12.2019 21:45 -0,8 C 4,4 C -1,9 C -1,3 C -2,3 C 0,0 C 84 % 87 % 1020,4 hPa 0,0 l/m 1,3 km/h (1 Bft) S-SW 202 0 min -3,2 C -2,3 C 2,1 km/h (1 Bft)
05.12.2019 21:50 -0,7 C 4,4 C -1,9 C -1,2 C -2,3 C 0,0 C 84 % 87 % 1020,4 hPa 0,0 l/m 1,3 km/h (1 Bft) S-SO 157 0 min -3,1 C -2,3 C 3,4 km/h (1 Bft)
05.12.2019 21:55 -0,7 C 4,4 C -1,8 C -1,2 C -2,3 C 0,0 C 84 % 87 % 1020,4 hPa 0,0 l/m 1,0 km/h (0 Bft) SW 225 0 min -3,1 C -2,3 C 4,8 km/h (1 Bft)
05.12.2019 22:00 -0,5 C 4,4 C -1,7 C -1,1 C -2,2 C 0,0 C 84 % 88 % 1020,9 hPa 0,0 l/m 1,6 km/h (1 Bft) S-SW 202 0 min -2,9 C -2,2 C 2,3 km/h (1 Bft)
05.12.2019 22:05 -0,5 C 4,4 C -1,6 C -1,0 C -2,0 C 0,0 C 84 % 88 % 1020,9 hPa 0,0 l/m 1,8 km/h (1 Bft) N-NW 337 0 min -2,9 C -2,0 C 0,0 km/h (0 Bft)
05.12.2019 22:10 -0,5 C 4,4 C -1,5 C -1,0 C -2,0 C 0,0 C 84 % 87 % 1020,9 hPa 0,0 l/m 1,9 km/h (1 Bft) SW 225 0 min -2,9 C -2,0 C 5,8 km/h (2 Bft)
05.12.2019 22:15 -0,5 C 4,3 C -1,6 C -1,1 C -2,2 C 0,0 C 84 % 87 % 1020,9 hPa 0,0 l/m 2,7 km/h (1 Bft) S-SO 157 0 min -2,9 C -2,2 C 4,5 km/h (1 Bft)
05.12.2019 22:20 -0,4 C 4,3 C -1,5 C -1,1 C -2,5 C 0,0 C 84 % 87 % 1020,9 hPa 0,0 l/m 3,2 km/h (1 Bft) S-SW 202 0 min -2,8 C -2,5 C 1,8 km/h (1 Bft)
05.12.2019 22:25 -0,4 C 4,3 C -1,5 C -1,1 C -2,4 C 0,0 C 84 % 87 % 1020,9 hPa 0,0 l/m 3,2 km/h (1 Bft) S 180 0 min -2,8 C -2,4 C 4,5 km/h (1 Bft)
05.12.2019 22:30 -0,3 C 4,3 C -1,4 C -1,0 C -2,3 C 0,0 C 84 % 87 % 1020,9 hPa 0,0 l/m 3,4 km/h (1 Bft) S 180 0 min -2,7 C -2,3 C 3,1 km/h (1 Bft)
05.12.2019 22:35 -0,3 C 4,3 C -1,4 C -1,1 C -2,7 C 0,0 C 84 % 87 % 1020,9 hPa 0,0 l/m 3,9 km/h (1 Bft) S-SW 202 0 min -2,7 C -2,7 C 5,1 km/h (1 Bft)
05.12.2019 22:40 -0,3 C 4,3 C -1,3 C -1,1 C -2,7 C 0,0 C 84 % 87 % 1020,4 hPa 0,0 l/m 4,0 km/h (1 Bft) S-SO 157 0 min -2,7 C -2,7 C 4,5 km/h (1 Bft)
05.12.2019 22:45 -0,1 C 4,3 C -1,3 C -1,0 C -2,7 C 0,0 C 84 % 87 % 1020,4 hPa 0,0 l/m 4,0 km/h (1 Bft) S 180 0 min -2,5 C -2,7 C 5,3 km/h (1 Bft)
05.12.2019 22:50 -0,1 C 4,3 C -1,2 C -0,9 C -2,4 C 0,0 C 84 % 87 % 1020,4 hPa 0,0 l/m 3,9 km/h (1 Bft) S 180 0 min -2,5 C -2,4 C 3,1 km/h (1 Bft)
05.12.2019 22:55 -0,1 C 4,3 C -1,3 C -0,8 C -2,3 C 0,0 C 83 % 87 % 1020,4 hPa 0,0 l/m 3,5 km/h (1 Bft) S-SW 202 0 min -2,6 C -2,3 C 4,7 km/h (1 Bft)
05.12.2019 23:00 -0,1 C 4,3 C -1,3 C -0,9 C -2,4 C 0,0 C 83 % 87 % 1020,1 hPa 0,0 l/m 3,7 km/h (1 Bft) SO 135 0 min -2,6 C -2,4 C 5,3 km/h (1 Bft)
05.12.2019 23:05 -0,1 C 4,3 C -1,3 C -1,0 C -2,7 C 0,0 C 83 % 87 % 1020,1 hPa 0,0 l/m 4,0 km/h (1 Bft) SO 135 0 min -2,6 C -2,7 C 1,8 km/h (1 Bft)
05.12.2019 23:10 -0,1 C 4,3 C -1,2 C -1,0 C -2,8 C 0,0 C 83 % 87 % 1020,1 hPa 0,0 l/m 4,5 km/h (1 Bft) SO 135 0 min -2,6 C -2,8 C 2,9 km/h (1 Bft)
05.12.2019 23:15 -0,1 C 4,3 C -1,2 C -0,9 C -2,6 C 0,0 C 83 % 87 % 1020,1 hPa 0,0 l/m 4,2 km/h (1 Bft) W-SW 247 0 min -2,6 C -2,6 C 2,4 km/h (1 Bft)
05.12.2019 23:20 -0,1 C 4,3 C -1,3 C -0,7 C -1,8 C 0,0 C 83 % 87 % 1019,9 hPa 0,0 l/m 2,6 km/h (1 Bft) S-SW 202 0 min -2,6 C -1,8 C 3,4 km/h (1 Bft)
05.12.2019 23:25 -0,1 C 4,3 C -1,3 C -0,6 C -1,6 C 0,0 C 83 % 87 % 1019,9 hPa 0,0 l/m 2,4 km/h (1 Bft) SW 225 0 min -2,6 C -1,6 C 3,7 km/h (1 Bft)
05.12.2019 23:30 -0,1 C 4,3 C -1,3 C -0,8 C -2,2 C 0,0 C 83 % 87 % 1019,9 hPa 0,0 l/m 3,2 km/h (1 Bft) W-NW 292 0 min -2,6 C -2,2 C 0,0 km/h (0 Bft)
05.12.2019 23:35 -0,3 C 4,3 C -1,3 C -1,0 C -2,3 C 0,0 C 83 % 87 % 1019,9 hPa 0,0 l/m 3,4 km/h (1 Bft) SW 225 0 min -2,8 C -2,3 C 5,6 km/h (1 Bft)
05.12.2019 23:40 -0,1 C 4,3 C -1,3 C -0,9 C -2,4 C 0,0 C 83 % 87 % 1020,3 hPa 0,0 l/m 3,5 km/h (1 Bft) S-SW 202 0 min -2,6 C -2,4 C 0,0 km/h (0 Bft)
05.12.2019 23:45 -0,1 C 4,3 C -1,3 C -0,9 C -2,4 C 0,0 C 83 % 87 % 1020,3 hPa 0,0 l/m 3,5 km/h (1 Bft) SO 135 0 min -2,6 C -2,4 C 4,7 km/h (1 Bft)
05.12.2019 23:50 -0,1 C 4,3 C -1,2 C -0,7 C -2,0 C 0,0 C 83 % 87 % 1020,3 hPa 0,0 l/m 2,9 km/h (1 Bft) SO 135 0 min -2,6 C -2,0 C 8,0 km/h (2 Bft)
05.12.2019 23:55 -0,1 C 4,3 C -1,2 C -0,8 C -2,2 C 0,0 C 83 % 87 % 1020,3 hPa 0,0 l/m 3,2 km/h (1 Bft) SO 135 0 min -2,6 C -2,2 C 4,0 km/h (1 Bft)
_ Min-Zeit 07:50 13:00 07:30 08:00 08:00 00:00 13:50 14:05 23:20 - 00:00 - - - 07:50 08:00 00:00
Minimum _ -4,9 C 4,0 C -4,7 C -5,1 C -5,4 C 0,0 C 76 % 84 % 1019,9 hPa - 0,0 km/h (0 Bft) - - - -6,4 C -5,4 C 0,0 km/h (0 Bft)
_ Max-Zeit 13:30 00:00 13:50 14:30 14:30 11:15 05:10 00:00 10:20 00:00 13:35 - - 11:10 12:25 14:30 13:25
Maximum _ 3,7 C 5,7 C 2,7 C 5,6 C 5,6 C 3,7 C 89 % 91 % 1023,1 hPa 0,0 l/m 7,7 km/h
SO (2 Bft)
- - 5 min 0,9 C 5,6 C 18,8 km/h
S (3 Bft)
Durchschnitt _ -1,1 C 4,6 C -1,6 C -1,0 C -1,6 C 0,4 C 85 % 88 % 1021,7 hPa #0,0 l/m 1,7 km/h (1 Bft) S - #25 min. -3,3 C -1,7 C 2,3 km/h (1 Bft)
2019 www.wetterstation-wechselburg.de